Location: Embarras
(53.3000°N, 116.9000°W)
Time: 22:23:59
(UTC+00:00)

Envisat - Visible Passes

Search period start: 29 May 2023 00:00
Search period end: 08 June 2023 00:00
Orbit: 763 x 765 km, 98.2° (Epoch: 29 May)

Date Brightness Start Highest point End Pass type
(mag) Time Alt. Az. Time Alt. Az. Time Alt. Az.
29 May 5.4 10:36:51 10° NE 10:40:39 21° E 10:44:26 10° SE visible
30 May 5.9 10:02:04 10° ENE 10:02:56 10° E 10:03:48 10° E visible
01 Jun 5.5 10:24:48 10° NE 10:28:03 17° E 10:31:18 10° SE visible
04 Jun 5.6 10:12:58 10° NE 10:15:27 13° E 10:17:55 10° ESE visible
07 Jun 5.9 10:01:46 10° ENE 10:02:48 11° E 10:03:51 10° E visible
